Наши проекты: 3D печать и услуги : Wiki : Сувениры : Walkarounds :
Войти Регистрация

Архив статей

Всего статей в архиве: 122

Январь 2016 : 26

Id Раздел Название Просмотров оценок Дата
9454 1/72Trumpeter 1/72 North American F-100C Super Sabre 4924 9 31.1.16
9458 1/35D-corporation 1/35 Танк Sherman M4A3E8 9628 13 31.1.16
9457 1/72Обзор Valom 72100 1/72 Heinkel He.119 V4 4396 3 31.1.16
9448 1/35Звезда 1/35 БМПТ Терминатор 4731 6 31.1.16
9451 1/35Звезда 1/35 Т-72Б - Зимний прогон 5265 6 30.1.16
9450 1/35Звезда 1/35 Т-34-85 - Августовский шторм или Тагил на Дальних берегах 9856 29 30.1.16
9449 1/72Обзор DK Decals 1/72 B-17 Flying Fortress in the Pacific 6276 10 30.1.16
9447 1/72Звезда 1/72 Ми-35М В камуфляже 9244 24 30.1.16
9446 Фантастика (Sci-Fi)Самодел Средний мех Алгер Т80/2 (отряд Млечного Паука) 2640 5 29.1.16
9445 1/48GWH 1/48 МиГ-29 9-13 9568 31 29.1.16
9444 1/35Самодел 1/35 Тополь-М 8781 31 29.1.16
9468 КораблиКомбриг 1/350 Немецкий минный тральщик M50 Minesweeper, 1916 3222 5 29.1.16
9443 1/48Hasegawa 1/48 P-40E Kittyhawk 4802 17 29.1.16
9442 1/72Italeri 1/72 UH-34D 5190 36 28.1.16
9441 АвтомобилиAoshima 1/24 Lamborghini Murcielago R-SV 2010 4627 13 28.1.16
9440 1/72A-Model 1/72 Ан-71 8114 25 28.1.16
9435 1/48Обзор Zoukei-mura 1/48 Horten Ho-229 (SWS48-03) 6562 6 28.1.16
9438 1/35Trumpeter 1/35 Т-62 4942 8 27.1.16
9437 Фигуры и солдатикиEK Castings 54mm Шотландский рыцарь XIII век 3498 4 27.1.16
9436 КораблиFujimi 1/700 IJN Battleship Kongo 5514 14 27.1.16
9434 Другие масштабыSweet 1/144 A6M2B Zero fighter 2596 1 27.1.16
9455 РазноеОбзор HobbyElements MicroFlat Files 4875 12 26.1.16
9433 1/35Trumpeter 1/35 МАЗ-537 поздняя версия 11523 16 26.1.16
9431 1/72Гантрак на базе Урала (Звезда 1/100) 4496 15 26.1.16
9430 1/72Звезда 1/72 Ка-58 – моя призрачная кошка или Отметьте еще вот что… 4314 2 26.1.16
9429 1/48Roden 1/48 Bristol F.2B Fighter - Гибель побежденным 4145 18 26.1.16
9428 1/35ICM 1/35 Зил-131Н 5035 19 25.1.16
9427 Фигуры и солдатикиTamiya 1/16 генерал-фельдмаршал Эрвин Роммель 3698 -5 25.1.16
9426 1/32Trumpeter 1/32 МиГ-3 - Истребитель А.И.Покрышкина 6130 17 25.1.16
9425 Другие масштабыЗвезда 1/144 Ту-154 - Неудачная история сборки самолета 10530 2 25.1.16
9396 1/48Trumpeter 1/48 МиГ-21УМ 1/48 6326 15 24.1.16
9424 1/48АРК Модель 1/48 Поликарпов И-185 9260 22 24.1.16
9421 1/35AMG 1/35 ADGZ 3194 8 24.1.16
9420 1/35Звезда 1/35 ИСУ-152 3484 -8 24.1.16
9419 1/48ARII 1/48 P-40(E) Kittyhawk 4959 6 23.1.16
9418 1/35Tamiya 1/35 M41 Walker Bulldog 4314 9 23.1.16
9417 1/35Моделист 1/35 КВ-1 3996 11 23.1.16
9416 1/35Meng Model 1/35 M2A3 Bradley W/BUSK III с интерьером 7854 5 23.1.16
9415 1/35Конверсия Звезда 1/35 VT-34 6510 11 22.1.16
9411 1/48Патрубки REXX 48025 для И-16 в масштабе 1/48 5640 11 22.1.16
9413 1/48GWH 1/48 Douglas TBD-1 Devastator 5870 18 22.1.16
9410 Фантастика (Sci-Fi)Bandai 1/72 Incom T-65 X-Wing Starfigter 5547 9 21.1.16
9408 РазноеОбзор компрессора JAS 1215 11942 -3 21.1.16
9409 Техники и секретыШвы и заклёпки на поверхности самолёта 12546 -5 21.1.16
9439 Другие масштабыSweet 1/144 A5M4 Type 96 Carrier Fighter 3674 22 21.1.16
9407 Фигуры и солдатикиЗвезда 1/72 Немецкая пехота в зимней форме 4159 8 21.1.16
9406 Фигуры и солдатикиReneclub 54mm Soldier Of Christ 2538 11 20.1.16
9405 1/72Звезда 1/72 Т-90А дубль два. 3869 5 20.1.16
9404 1/35Trumpeter 1/35 Т-64БВ - Батальон Восток, Донецкая Народная Республика. 8351 25 20.1.16
9403 Фантастика (Sci-Fi)28mm Хэллбрут отряда крававой резни 2536 0 20.1.16
9402 1/48HobbyBoss 1/48 BAe Hawk, RAF Valley 2001 2672 5 19.1.16
9105 1/72Звезда 1/72 P-40B Tomahawk (Попытка номер 2 ) 5088 8 19.1.16
9401 1/35Ark models 1/35 Pz.Kpfw.II Ausf.D - первый опыт 9848 24 19.1.16
9400 1/35Конверсия 1/35 Экранированный Т-26 из под Ленинграда 7564 12 19.1.16
9399 Фантастика (Sci-Fi)Bandai 1/48 X-Wing Starfighter 4131 11 18.1.16
9422 1/35Aeroplast 1/35 Т-60 - К Снятию Блокады Ленинграда 4708 12 18.1.16
9398 Фигуры и солдатикиEK Castings 54 мм Итальянский рыцарь, конец XIII века 2833 3 18.1.16
9397 1/48Самодел 1/48 Миг-9 5537 22 18.1.16
9393 РазноеСамодел 1/25 Паровоз ИС-20 5267 23 18.1.16
9392 ДиорамыFondere Miniature 1/48 Dewoitine D-501 - Часть 2 4268 16 17.1.16
9391 Модели из бумагиБумажная Планета 1/25 Strv.103c - Шведское гусеничное НЛО 4669 5 17.1.16
9390 РазноеОбзор ICM 1/35 Greek Evzones (1940-1941) 35562 2919 2 17.1.16
9389 Аниме Garage Kits / ФэнтезиFG4769 Raquel Gothic Готическая Рэкел 2835 4 17.1.16
9387 РазноеEggPlane Сотка Т-4 - Десять Десятков 3661 12 16.1.16
9388 1/48ARII 1/48 F4U-1A Corsair 3734 5 16.1.16
9386 КораблиМикро-Мир 1/350 USS Theodore Roosevelt (SSBN-600) 3341 6 16.1.16
9423 1/48Обзор Kinetic 1/48 SU-33 Flanker D 16005 19 16.1.16
9385 1/35Tamiya 1/35 ИС-3 5539 7 16.1.16
9383 1/35Italeri 1/35 LVT(A)4 ранний 3307 10 15.1.16
9384 1/48ICM 1/48 Ju-88 8690 32 15.1.16
9381 1/48Tamiya 1/48 A6M5 Zero 3224 14 15.1.16
9382 1/48Fondere Miniature 1/48 Dewoitine D-501- Часть 1 6100 21 15.1.16
9380 1/48Academy 1/48 Су-30М2 авиабаза КРЫМСК 5694 17 14.1.16
9379 1/72Обзор Hasegawa/Unicraft 1/72 XF5U/Jet Skimmer 3969 11 14.1.16
9377 Диорамы1/35 Один в лесу 2683 8 14.1.16
9376 1/35ICM 1/35 ЗиЛ-131 6642 -21 14.1.16
9374 1/35Trumpeter 1/35 ИС-3М 2545 -5 13.1.16
9373 1/72Sword 1/72 Aichi B7A2 Ryusei Kai 3473 9 13.1.16
9372 1/72Revell 1/72 DC-3 Douglas 7768 11 13.1.16
9412 1/72Обзор Звезда 1/72 МиГ-29 (9-13) 58953 48 13.1.16
9371 1/35Звезда 1/35 M-3 Scout car 5259 16 12.1.16
9370 Техники и секретыСамодельная декаль Люфтваффе и сателлиты 1/72 8182 11 12.1.16
9369 1/35Моделист 1/35 Ford V3000S 3156 10 12.1.16
9368 1/35Italeri 1/35 Ferdinand 8,8 cm (Sd.Kfz.184) 3428 3 12.1.16
9366 1/72Academy 1/72 FW-190D-9 2655 5 11.1.16
9365 1/35Tamyia 1/35 M1A2 Sep Abrams Tusk II 6646 11 11.1.16
9364 1/35AVF Club 1/35 M-10 Wolverine 5154 15 11.1.16
9363 Техники и секретыСлужебные надписи/техничка на борту ЛА 8431 -4 11.1.16
9362 РазноеЕВА в стиле Egg 2486 14 10.1.16
9358 1/72Обзор Amodel 1/72 72349 Learjet 60XR 5624 7 10.1.16
9357 1/35Dragon 1/35 T-34-85 обр. 1944 года 6429 6 10.1.16
9356 1/35Mend Model, Xact 1/35 Газ-233014 Тигр 4477 1 10.1.16
9361 1/72Academy 1/72 F4F-4 Wildcat 5749 14 9.1.16
9354 1/72Обзор Sharkit 1/72 Bugatti 100P 4010 7 9.1.16
9355 1/48Hobby Boss 1/48 IDS Tornado 4742 20 9.1.16
9353 1/72Звезда 1/72 Су-50 (Т-50) 10145 18 9.1.16
9360 1/48Trumpeter 1/48 МиГ-23МЛД 10399 28 8.1.16
9351 1/35Восточный Экспресс 1/35 ЗИС-44(санитарный) 4680 4 8.1.16
9352 1/72Моделька Як-9Д 3036 -5 8.1.16
9350 Техники и секретыНарезка расшивки на модели 14653 16 8.1.16
9378 Разное1-я Всероссийская выставка Живая История. Ходынка 2016 5211 12 7.1.16
9359 1/35Takom 1/35 ОБТ T-14 Армата 4871 5 7.1.16
9349 1/72Whirlybird 1/72 HH-3F Заслуженный Пеликан Итальянских ВВС 5823 19 7.1.16
9348 Фигуры и солдатикиHasslefree Miniatures 28 mm Walter White (Heisenberg) 2830 8 7.1.16
9346 1/48ICM 1/48 МиГ-3 5650 5 7.1.16
9345 1/48HobbyCraft 1/48 F4U-1A Corsair, Royal Navy 2901 -5 6.1.16
9344 1/48ARII 1/48 Grumman F6F-3 Hellcat 4075 2 6.1.16
9343 1/32Trumpeter/IvAndre 1/32 F-14A Tomcat 5017 -2 5.1.16
9342 КораблиMikroMir 1/350 USS George Washington (SSBN-598) 3624 9 5.1.16
9341 Аниме Garage Kits / ФэнтезиWarmachine 28mm WarWitch Siren 1669 2 5.1.16
9340 1/35Звезда 1/35 Танк Т-90 - первый блин 5742 12 4.1.16
9337 1/72Tankograd + AriaMaster 1/72 БТР-82А (аэр.Бельбек, 2014) 8941 16 4.1.16
9336 1/35Dragon 1/35 Stug III Ausf A 9143 2657 7 4.1.16
9335 1/48Kawasaki 1/48 Ki-61 Tony 3650 2 3.1.16
9333 1/35Italeri 1/35 Sd.Kfz.234 Puma 1385 -1 3.1.16
9332 1/48HobbyBoss 1/48 Republic F-105D Thunderchief - предметноместный Тандерчиф 8576 13 3.1.16
9331 Фигуры и солдатикиEK Castings 54 мм Кутузов и Наполеон 3067 3 2.1.16
9330 Диорамы1/72 Снова за речку! 6866 24 2.1.16
9329 КораблиОобзор Trumpeter 1/350 USS Texas BB-35 5438 2 2.1.16
9328 1/48Airfix 1/48 BAC Lightning F.6 4797 6 1.1.16
9327 1/35Скиф 1/35 Т-55АМ - благие намерения 7356 24 1.1.16
9325 1/72Tamiya 1/72 Kawanishi N1K1-Ja Shiden, Type 11 2831 2 1.1.16
 Май, 2024 - 34
 Апрель, 2024 - 95
 Март, 2024 - 89
 Февраль, 2024 - 91
 Январь, 2024 - 47
 Декабрь, 2023 - 38
 Ноябрь, 2023 - 36
 Октябрь, 2023 - 41
 Сентябрь, 2023 - 36
 Август, 2023 - 30
 Июль, 2023 - 22
 Июнь, 2023 - 31
 Май, 2023 - 40
 Апрель, 2023 - 69
 Март, 2023 - 74
 Февраль, 2023 - 71
 Январь, 2023 - 31
 Декабрь, 2022 - 43
 Ноябрь, 2022 - 51
 Октябрь, 2022 - 40
 Сентябрь, 2022 - 37
 Август, 2022 - 48
 Июль, 2022 - 39
 Июнь, 2022 - 45
 Май, 2022 - 47
 Апрель, 2022 - 51
 Март, 2022 - 59
 Февраль, 2022 - 71
 Январь, 2022 - 51
 Декабрь, 2021 - 60
 Ноябрь, 2021 - 47
 Октябрь, 2021 - 52
 Сентябрь, 2021 - 43
 Август, 2021 - 53
 Июль, 2021 - 63
 Июнь, 2021 - 46
 Май, 2021 - 39
 Апрель, 2021 - 87
 Март, 2021 - 56
 Февраль, 2021 - 67
 Январь, 2021 - 60
 Декабрь, 2020 - 58
 Ноябрь, 2020 - 58
 Октябрь, 2020 - 60
 Сентябрь, 2020 - 69
 Август, 2020 - 62
 Июль, 2020 - 64
 Июнь, 2020 - 61
 Май, 2020 - 80
 Апрель, 2020 - 120
 Март, 2020 - 94
 Февраль, 2020 - 94
 Январь, 2020 - 75
 Декабрь, 2019 - 85
 Ноябрь, 2019 - 80
 Октябрь, 2019 - 92
 Сентябрь, 2019 - 65
 Август, 2019 - 69
 Июль, 2019 - 75
 Июнь, 2019 - 61
 Май, 2019 - 82
 Апрель, 2019 - 92
 Март, 2019 - 93
 Февраль, 2019 - 106
 Январь, 2019 - 84
 Декабрь, 2018 - 90
 Ноябрь, 2018 - 87
 Октябрь, 2018 - 65
 Сентябрь, 2018 - 66
 Август, 2018 - 64
 Июль, 2018 - 65
 Июнь, 2018 - 60
 Май, 2018 - 75
 Апрель, 2018 - 108
 Март, 2018 - 90
 Февраль, 2018 - 86
 Январь, 2018 - 97
 Декабрь, 2017 - 77
 Ноябрь, 2017 - 73
 Октябрь, 2017 - 69
 Сентябрь, 2017 - 86
 Август, 2017 - 68
 Июль, 2017 - 77
 Июнь, 2017 - 74
 Май, 2017 - 71
 Апрель, 2017 - 119
 Март, 2017 - 108
 Февраль, 2017 - 113
 Январь, 2017 - 84
 Декабрь, 2016 - 98
 Ноябрь, 2016 - 86
 Октябрь, 2016 - 61
 Сентябрь, 2016 - 75
 Август, 2016 - 65
 Июль, 2016 - 92
 Июнь, 2016 - 87
 Май, 2016 - 88
 Апрель, 2016 - 168
 Март, 2016 - 132
 Февраль, 2016 - 118
 Январь, 2016 - 122
 Декабрь, 2015 - 113
 Ноябрь, 2015 - 114
 Октябрь, 2015 - 116
 Сентябрь, 2015 - 80
 Август, 2015 - 75
 Июль, 2015 - 96
 Июнь, 2015 - 86
 Май, 2015 - 88
 Апрель, 2015 - 142
 Март, 2015 - 124
 Февраль, 2015 - 90
 Январь, 2015 - 99
 Декабрь, 2014 - 88
 Ноябрь, 2014 - 69
 Октябрь, 2014 - 99
 Сентябрь, 2014 - 61
 Август, 2014 - 65
 Июль, 2014 - 69
 Июнь, 2014 - 83
 Май, 2014 - 59
 Апрель, 2014 - 108
 Март, 2014 - 107
 Февраль, 2014 - 81
 Январь, 2014 - 104
 Декабрь, 2013 - 81
 Ноябрь, 2013 - 90
 Октябрь, 2013 - 90
 Сентябрь, 2013 - 78
 Август, 2013 - 72
 Июль, 2013 - 63
 Июнь, 2013 - 71
 Май, 2013 - 73
 Апрель, 2013 - 109
 Март, 2013 - 77
 Февраль, 2013 - 74
 Январь, 2013 - 72
 Декабрь, 2012 - 69
 Ноябрь, 2012 - 93
 Октябрь, 2012 - 88
 Сентябрь, 2012 - 78
 Август, 2012 - 69
 Июль, 2012 - 64
 Июнь, 2012 - 86
 Май, 2012 - 81
 Апрель, 2012 - 100
 Март, 2012 - 99
 Февраль, 2012 - 87
 Январь, 2012 - 81
 Декабрь, 2011 - 77
 Ноябрь, 2011 - 86
 Октябрь, 2011 - 69
 Сентябрь, 2011 - 79
 Август, 2011 - 97
 Июль, 2011 - 72
 Июнь, 2011 - 78
 Май, 2011 - 77
 Апрель, 2011 - 106
 Март, 2011 - 111
 Февраль, 2011 - 82
 Январь, 2011 - 93
 Декабрь, 2010 - 87
 Ноябрь, 2010 - 70
 Октябрь, 2010 - 80
 Сентябрь, 2010 - 78
 Август, 2010 - 88
 Июль, 2010 - 78
 Июнь, 2010 - 86
 Май, 2010 - 94
 Апрель, 2010 - 117
 Март, 2010 - 95
 Февраль, 2010 - 117
 Январь, 2010 - 76
 Декабрь, 2009 - 78
 Ноябрь, 2009 - 85
 Октябрь, 2009 - 79
 Сентябрь, 2009 - 85
 Август, 2009 - 75
 Июль, 2009 - 71
 Июнь, 2009 - 49
 Май, 2009 - 54
 Апрель, 2009 - 103
 Март, 2009 - 81
 Февраль, 2009 - 61
 Январь, 2009 - 51
 Декабрь, 2008 - 57
 Ноябрь, 2008 - 50
 Октябрь, 2008 - 74
 Сентябрь, 2008 - 33
 Август, 2008 - 47
 Июль, 2008 - 37
 Июнь, 2008 - 55
 Май, 2008 - 57
 Апрель, 2008 - 55
 Март, 2008 - 51
 Февраль, 2008 - 43
 Январь, 2008 - 48
 Декабрь, 2007 - 28
 Ноябрь, 2007 - 39
 Октябрь, 2007 - 62
 Сентябрь, 2007 - 17
 Август, 2007 - 32
 Июль, 2007 - 27
 Июнь, 2007 - 32
 Май, 2007 - 20
 Апрель, 2007 - 22
 Март, 2007 - 23
 Февраль, 2007 - 28
 Январь, 2007 - 31
 Декабрь, 2006 - 14
 Ноябрь, 2006 - 28
 Октябрь, 2006 - 23
 Сентябрь, 2006 - 14
 Август, 2006 - 15
 Июль, 2006 - 17
 Июнь, 2006 - 14
 Май, 2006 - 12
 Апрель, 2006 - 5
 Март, 2006 - 17
 Февраль, 2006 - 8
 Январь, 2006 - 3
 Ноябрь, 2005 - 3
 Октябрь, 2005 - 3
 Сентябрь, 2005 - 9
 Август, 2005 - 14
 Июль, 2005 - 1
Канал на Дзене Телеграм ScaleModels.ru Вконтакте Подписаться на RSS
ScaleModels.ru - сборные масштабные модели. © 2005-2022
Privacy Policy